Flag Weather past 2 weeks in Constantine, Algeria

Now
55 °F

Partly cloudy.


Feels Like: 54 °F
Forecast: 45 / 70 °F
Wind: 6 mph from Southwest

Location: Constantine Airport

Current Time: Nov 26, 2014 at 12:38:37 AM

Latest Report: Nov 26, 2014 at 12:00 AM


Visibility: N/A

Pressure: 30.12 "Hg

Humidity: 77%

Dew point: 48 °F

Location of ConstantineLocation

Historic Weather in Constantine — Graph

°F

Constantine temperature yesterday

Maximum temperature yesterday: 68 °F (at 12:30 PM)
Minimum temperature yesterday: 54 °F (at 8:00 AM)
Average temperature yesterday: 59 °F

Past Weeks' High & Low Weather Summary

 TemperatureHumidityPressure
High82 °F (Nov 22, 3:30 PM)94% (Nov 10, 11:00 PM)30.27 "Hg (Nov 10, 11:00 PM)
Low41 °F (Nov 17, 5:00 AM)20% (Nov 22, 3:30 PM)29.80 "Hg (Nov 11, 2:00 PM)
Average57 °F59%30.07 "Hg
* Reported Nov 10 11:00 PM — Nov 25 11:30 PM, Constantine, Weather by CustomWeather, © 2014

Note: Actual official high and low records may vary slightly from our data, if they occured in-between our weather recording intervals... More about our weather records

Advertising

Constantine weather history for previous 24 hours

 ConditionsComfort  
Time TempWeatherWind HumidityBarometerVisibility
11:30 PM
Nov 25
55 °FPartly cloudy.6 mph77%30.12 "HgN/A
11:00 PM55 °FPartly cloudy.6 mph77%30.12 "HgN/A
10:30 PM55 °FPartly cloudy.6 mph77%30.12 "HgN/A
9:30 PM55 °FPartly cloudy.5 mph72%30.09 "HgN/A
9:00 PM57 °FPartly cloudy.5 mph67%30.12 "HgN/A
8:30 PM55 °FPartly cloudy.3 mph72%30.12 "HgN/A
8:00 PM57 °FPartly cloudy.No wind67%30.12 "HgN/A
7:30 PM57 °FPartly cloudy.5 mph67%30.12 "HgN/A
7:00 PM57 °FPartly cloudy.5 mph67%30.12 "HgN/A
6:30 PM59 °FPartly cloudy.8 mph59%30.12 "HgN/A
6:00 PM61 °FPartly cloudy.8 mph55%30.12 "HgN/A
5:30 PM61 °FPartly cloudy.7 mph55%30.09 "HgN/A
5:00 PM63 °FBroken clouds.7 mph49%30.09 "HgN/A
4:30 PM63 °FBroken clouds.8 mph49%30.09 "HgN/A
4:00 PM64 °FBroken clouds.9 mph46%30.09 "HgN/A
3:30 PM64 °FBroken clouds.10 mph46%30.09 "HgN/A
3:00 PM66 °FBroken clouds.12 mph43%30.09 "HgN/A
2:30 PM66 °FScattered clouds.12 mph40%30.09 "HgN/A
2:00 PM68 °FScattered clouds.12 mph40%30.12 "HgN/A
1:30 PM68 °FBroken clouds.12 mph40%30.12 "HgN/A
1:00 PM66 °FBroken clouds.8 mph43%30.12 "HgN/A
12:30 PM68 °FScattered clouds.7 mph43%30.12 "HgN/A
12:00 PM64 °FScattered clouds.6 mph49%30.18 "HgN/A
11:30 AM66 °FScattered clouds.3 mph49%30.15 "HgN/A
11:00 AM63 °FScattered clouds.1 mph52%30.18 "HgN/A
10:30 AM61 °FBroken clouds.No wind55%30.18 "HgN/A
10:00 AM59 °FBroken clouds.3 mph59%30.18 "HgN/A
9:30 AM57 °FBroken clouds.5 mph63%30.15 "HgN/A
9:00 AM57 °FBroken clouds.5 mph63%30.15 "HgN/A
8:30 AM55 °FBroken clouds.6 mph67%30.15 "HgN/A
8:00 AM54 °FBroken clouds.6 mph72%30.15 "HgN/A
7:30 AM55 °FBroken clouds.6 mph67%30.15 "HgN/A
7:00 AM55 °FPassing clouds.6 mph67%30.15 "HgN/A
6:30 AM55 °FPassing clouds.6 mph67%30.15 "HgN/A
6:00 AM55 °FPassing clouds.6 mph67%30.15 "HgN/A
5:30 AM55 °FPassing clouds.8 mph72%30.15 "HgN/A
5:00 AM55 °FPassing clouds.8 mph72%30.15 "HgN/A
4:30 AM55 °FPassing clouds.6 mph72%30.15 "HgN/A
3:30 AM55 °FPassing clouds.6 mph72%30.18 "HgN/A
3:00 AM55 °FPassing clouds.6 mph72%30.18 "HgN/A
2:30 AM57 °FPassing clouds.7 mph67%30.18 "HgN/A
2:00 AM57 °FPassing clouds.7 mph67%30.18 "HgN/A
1:30 AM57 °FPassing clouds.8 mph67%30.18 "HgN/A
1:00 AM57 °FPassing clouds.8 mph67%30.18 "HgN/A
12:30 AM57 °FPassing clouds.8 mph63%30.21 "HgN/A
12:00 AM57 °FPassing clouds.5 mph67%30.18 "HgN/A
Weather by CustomWeather, © 2014

See weather overviewHow to use our weather pages